Terminal Aerodrome Forecast
Issued by NWS

Home | Current Version | Previous Version | Text Only | Print | Product List | Glossary On
Versions: 1 2 3 4 5 6 7 8 9 10 11 12 13 14 15
000
FTUS42 KFFC 050522
TAFFTY
TAF
KFTY 050522Z 0506/0606 00000KT P6SM SCT250
     FM051500 24006KT P6SM SCT050 SCT250 PROB30 0520/0524 6SM TSRA
      BKN050CB
     FM060100 00000KT P6SM SCT060 BKN180=

USA.gov is the U.S. government's official web portal to all federal, state and local government web resources and services.